weather.gov     
National Weather Service

Regional Weather Roundup
NWS Homepage
This page is being discontinued on March 12, 2014.
The same data is available at this site. Please update your bookmarks.
Thank you, and we apologize for the inconvenience.
Please send an email to SR-SRH.Webmaster@noaa.gov with any concerns.


Current Version
Previous Version:    01  02  03  04  05  06  07  08  09  10  11  12  13  14  15  16  17  18  19  20  21  22  23  24  25  26  27  
[Printable]
403
ASUS42 KCAE 020010
RWRCAE
REGIONAL WEATHER ROUNDUP
NATIONAL WEATHER SERVICE COLUMBIA SC
800 PM EDT WED OCT 01 2014

NOTE: "FAIR" INDICATES FEW OR NO CLOUDS BELOW 12,000 FEET WITH NO
SIGNIFICANT WEATHER AND/OR OBSTRUCTIONS TO VISIBILITY.

NOT ALL STATIONS ARE QUALITY CONTROLLED BY THE NATIONAL
WEATHER SERVICE. USE DATA WITH CAUTION...ESPECIALLY
DEWPOINT OBSERVATIONS.

SCZ001>056-GAZ040-063>065-077-020100-
...UPSTATE SOUTH CAROLINA...

CITY           SKY/WX    TMP DP  RH WIND       PRES   REMARKS
ANDERSON       CLEAR     73  62  68 CALM      29.99R
6HR MIN TEMP:  72; 6HR MAX TEMP:  85;

LIBERTY        FAIR      71  64  79 MISG      30.00R
SPARTANBURG    FAIR      73  66  78 CALM      29.99S
CLEMSON        CLEAR     77  60  55 CALM      30.00S
6HR MIN TEMP:  76; 6HR MAX TEMP:  84;

GREENVILLE     CLEAR     77  57  50 S3        30.01R
6HR MIN TEMP:  77; 6HR MAX TEMP:  84;

GREENWOOD      CLEAR     71  63  75 CALM      30.01R
6HR MIN TEMP:  71; 6HR MAX TEMP:  85;

GREER          PTCLDY    73  63  70 SE3       29.99R
6HR MIN TEMP:  73; 6HR MAX TEMP:  84;

ROCK HILL      CLEAR     67  64  90 CALM      30.01R
6HR MIN TEMP:  67; 6HR MAX TEMP:  84;

CHESTER        FAIR      72  61  68 CALM      30.05R
LAURENS        FAIR      72  57  60 CALM      30.00S


...CENTRAL SOUTH CAROLINA...

CITY           SKY/WX    TMP DP  RH WIND       PRES   REMARKS
COLUMBIA APT   PTCLDY    79  60  52 SE3       29.98R
6HR MIN TEMP:  79; 6HR MAX TEMP:  88;

COLUMBIA OWENS MOCLDY    76  64  66 CALM      29.99R
6HR MIN TEMP:  75; 6HR MAX TEMP:  86;

DARLINGTON     MOCLDY    72  66  83 CALM      30.00R
6HR MIN TEMP:  72; 6HR MAX TEMP:  84;

FLORENCE       MOCLDY    74  68  81 CALM      29.99R
6HR MIN TEMP:  74; 6HR MAX TEMP:  84;

MCENTIRE ANGB  PTCLDY    73  66  81 E2        30.00R
6HR MIN TEMP:  73; 6HR MAX TEMP:  85;

ORANGEBURG     CLEAR     72  64  76 CALM      29.99R
6HR MIN TEMP:  72; 6HR MAX TEMP:  85;

SUMTER SHAW    CLEAR     75  65  70 S3        29.98R
6HR MIN TEMP:  75; 6HR MAX TEMP:  86;

NEWBERRY       FAIR      72  63  73 CALM      30.02R
AIKEN          FAIR      72  66  83 CALM      30.03R
BARNWELL       FAIR      73  64  73 CALM      29.99R
MANNING        FAIR      72  72 100 CALM      30.00R
CAMDEN         FAIR      73  64  73 CALM      30.00R
LANCASTER      FAIR      70  68  94 CALM      30.00R
WINNSBORO      FAIR      75  63  64 CALM      29.99R


...EASTERN AND COASTAL SOUTH CAROLINA...

CITY           SKY/WX    TMP DP  RH WIND       PRES   REMARKS
MYRTLE BEACH   PTCLDY    75  64  69 S8        30.00R
N MYRTLE BCH   CLEAR     70  66  87 CALM      29.99R
6HR MIN TEMP:  70; 6HR MAX TEMP:  79;

CONWAY         FAIR      70  70 100 CALM      30.00R
MARION         FAIR      70  66  88 CALM      30.00R
HARTSVILLE     MOCLDY    73  54  49 CALM      30.01R
FLORENCE       MOCLDY    74  68  81 CALM      29.99R
6HR MIN TEMP:  74; 6HR MAX TEMP:  84;

DARLINGTON     MOCLDY    72  66  83 CALM      30.00R
6HR MIN TEMP:  72; 6HR MAX TEMP:  84;

CHARLESTON APT PTCLDY    74  62  66 SE3       30.00R
6HR MIN TEMP:  74; 6HR MAX TEMP:  86;

MOUNT PLEASANT FAIR      70  66  88 CALM      30.00R
WALTERBORO     CLEAR     72  72 100 SE5       30.00R
BEAUFORT       CLEAR     74  68  81 E3        29.99S
6HR MIN TEMP:  74; 6HR MAX TEMP:  85;



...EASTERN GEORGIA...

CITY           SKY/WX    TMP DP  RH WIND       PRES   REMARKS
AUGUSTA BUSH F CLEAR     70  64  81 CALM      29.97R
6HR MIN TEMP:  70; 6HR MAX TEMP:  86;

AUGUSTA DANIEL PTCLDY    80  60  50 S5        29.99R
6HR MIN TEMP:  80; 6HR MAX TEMP:  87;

THOMSON        CLEAR     72  72 100 CALM      30.03S
6HR MIN TEMP:  72; 6HR MAX TEMP:  87;

WASHINGTON     FAIR      73  70  88 CALM      29.99S
CLAXTON        FAIR      73  70  88 CALM      29.98R
SYLVANIA       CLEAR     73  70  92 CALM      29.99S
6HR MIN TEMP:  73; 6HR MAX TEMP:  88;

STATESBORO     CLEAR     71  69  92 CALM      29.98S
6HR MIN TEMP:  71; 6HR MAX TEMP:  85;

SAVANNAH       PTCLDY    75  64  68 VRB5      29.99R
6HR MIN TEMP:  75; 6HR MAX TEMP:  87;



...SOUTHERN NORTH CAROLINA...

CITY           SKY/WX    TMP DP  RH WIND       PRES   REMARKS
CHARLOTTE      PTCLDY    71  58  63 CALM      30.00S
6HR MIN TEMP:  70; 6HR MAX TEMP:  84;

MONROE         CLEAR     70  62  76 E3        30.00R
6HR MIN TEMP:  69; 6HR MAX TEMP:  84;

WADESBORO      CLEAR     71  66  83 CALM      30.00R
6HR MIN TEMP:  71; 6HR MAX TEMP:  84;

ROCKINGHAM     PTCLDY    73  65  75 E3        30.00R
6HR MIN TEMP:  73; 6HR MAX TEMP:  83;

RUTHERFORDTON  CLEAR     72  62  68 CALM      30.02R
6HR MIN TEMP:  72; 6HR MAX TEMP:  83;

ASHEVILLE      MOCLDY    69  61  75 S3        30.06R
6HR MIN TEMP:  69; 6HR MAX TEMP:  79; 6HR PCP: TRACE;


$$




U.S. Dept. of Commerce
NOAA National Weather Service
1325 East West Highway
Silver Spring, MD 20910
E-mail: w-nws.webmaster@noaa.gov
Page last modified: May 16, 2007
NATIONAL WEATHER SERVICE: for Safety, for Work, for Fun - FOR LIFE